This demonstration page uses our WeatherBlox Daily Observations layout. Learn more.

Left ArrowRight Arrow

Hourly Observations for April 17, 2016

Temp ( °F °C ) Dew Point ( °F °C ) Humidity (%) Winds ( mph kmh ) Pressure ( in mb ) Visibility ( mi km ) Precip ( " mm )
12:53 am 00:53 Clear 57 13.9 45 7.2 64 64 NNE 3 6 30.08 1019 10 16 0.00 0.00
1:53 am 01:53 Clear 57 13.9 45 7.2 64 64 N 5 7 30.06 1018 10 16 0.00 0.00
2:53 am 02:53 Clear 53 11.7 44 6.7 72 72 NNE 3 6 30.05 1018 10 16 0.00 0.00
3:53 am 03:53 Clear 51 10.6 45 7.2 80 80 NNE 5 7 30.05 1018 10 16 0.00 0.00
4:53 am 04:53 Clear 51 10.6 43 6.1 74 74 Calm 30.04 1017 10 16 0.00 0.00
5:53 am 05:53 Clear 49 9.4 43 6.1 80 80 Calm 30.04 1017 10 16 0.00 0.00
6:53 am 06:53 Sunny 48 8.9 42 5.6 80 80 Calm 30.05 1018 10 16 0.00 0.00
7:53 am 07:53 Sunny 56 13.3 46 7.8 70 70 Calm 30.05 1018 10 16 0.00 0.00
8:53 am 08:53 Sunny 63 17.2 49 9.4 60 60 Calm 30.05 1018 10 16 0.00 0.00
9:53 am 09:53 Sunny 76 24.4 37 2.8 24 24 N 8 13 30.04 1017 10 16 0.00 0.00
10:53 am 10:53 Sunny 80 26.7 37 2.8 21 21 NNW 7 11 30.04 1017 10 16 0.00 0.00
11:53 am 11:53 Sunny 83 28.3 37 2.8 19 19 N 6 9 30.03 1017 10 16 0.00 0.00
12:53 pm 12:53 Sunny 86 30 34 1.1 15 15 NNE 6 9 30.01 1016 10 16 0.00 0.00
1:53 pm 13:53 Sunny 87 30.6 30 -1.1 13 13 VRB 3 6 29.99 1016 10 16 0.00 0.00
2:53 pm 14:53 Sunny 88 31.1 31 -0.6 13 13 S 5 7 29.97 1015 10 16 0.00 0.00
3:53 pm 15:53 Sunny 90 32.2 32 0 13 13 W 9 15 29.95 1014 10 16 0.00 0.00
4:53 pm 16:53 Sunny 89 31.7 31 -0.6 12 12 WSW 6 9 29.93 1014 10 16 0.00 0.00
5:53 pm 17:53 Sunny 88 31.1 38 3.3 17 17 SW 8 13 29.93 1014 10 16 0.00 0.00
6:53 pm 18:53 Sunny 85 29.4 40 4.4 20 20 SSW 6 9 29.93 1014 10 16 0.00 0.00
7:53 pm 19:53 Clear 77 25 46 7.8 33 33 SSE 5 7 29.94 1014 10 16 0.00 0.00
8:53 pm 20:53 Clear 73 22.8 47 8.3 40 40 Calm 29.96 1015 10 16 0.00 0.00
9:53 pm 21:53 Clear 69 20.6 49 9.4 49 49 N 3 6 29.98 1015 10 16 0.00 0.00
10:53 pm 22:53 Clear 64 17.8 49 9.4 58 58 undefined N/A 30.00 1016 10 16 0.00 0.00
11:53 pm 23:53 Clear 60 15.6 48 8.9 65 65 Calm 30.01 1016 10 16 0.00 0.00

Powered by AerisWeather